sat.trackr.live / text

‹ back to catalog

STARLINK-4661

NORAD 53732 · 2022-107AJ

PAYLOAD ACTIVE UNKNOWN

§ Identity

Operator
Country
US
Launch date
2022-09-05
Launch site
AFETR
Launch vehicle
Mass (kg)
RCS (m²)

Purposes: comms

External: N2YO · Heavens-Above · Gunter

§ Orbital elements

Epoch: 2026-05-25T01:44:25.293408Z

Period
95.44 min
Inclination
53.2155°
Eccentricity
0.0001236
Mean motion
15.08838748 rev/d
Perigee alt
538.9 km
Apogee alt
540.6 km
Semi-major
6,917.9 km
B*
4.6434e-5
RAAN
271.3049°
Arg perigee
83.7538°
Mean anomaly
276.3595°
Rev number
20,608

§ Raw data

STARLINK-46611 53732U 22107AJ  26145.07251497  .00000451  00000+0  46434-4 0  99992 53732  53.2155 271.3049 0001236  83.7538 276.3595 15.08838748206080

JSON: /api/v1/satellites/53732 · /tle

For live sub-satellite position, see the globe view (requires WebGL).

§ Visibility from observer

Set your observer location to see the next 7 days of passes ≥ 10°. The values pass through the URL so the page stays shareable.

No JS? Fill the form by hand. The geolocation button needs JavaScript.